logo
Search for airport 
image banner adimage banner adimage banner ad
image banner ad

ZJHK - Haikou/Meilan

Located in Haikou, China

ICAO - ZJHK, IATA - HAK

Data provided by Airmate  

General information

Coordinates: N19°56'0" E110°27'36"
Elevation is 75 feet MSL.
 
View others Airports in Hainan Province

Operational data

Special qualification required
Current time UTC:
Current local time:
Weather
METAR: ZJHK 251700Z 24003MPS 9999 BKN040 28/25 Q0995 NOSIG
View NOTAMs / SUP AIP / TFR affecting this airport [VIEW]
Communications frequencies: [VIEW]

Runways:

RWY identifierQFULength (ft)Width (ft)SurfaceLDA (ft)
0990°11811148CON
27270°11811148CON
1090°11811197UNK
28270°11811197UNK

Airport contact information

Address: Haikou China

Satellite view of ZJHK